Location: York
(31.8935°S, 116.7682°E)
Time: 11:12:07
(UTC+08:00)

deb Explorer IX - Pass Details

Date: 03 October 2022
Orbit: 533 x 1057 km, 38.8° (Epoch: 01 December)

Event Time Altitude Azimuth Distance (km) Brightness Sun altitude
Rises 19:02:04 0° 278° (W) 3,612 ? -10.5°
Reaches altitude 10° 19:04:55 10° 273° (W) 2,591 ? -11.1°
Maximum altitude 19:10:56 54° 196° (SSW) 986 ? -12.3°
Enters shadow 19:16:03 10° 119° (ESE) 2,208 ? -13.4°
Drops below altitude 10° 19:16:06 10° 119° (ESE) 2,230 - -13.4°
Sets 19:18:25 0° 113° (ESE) 3,071 - -13.9°
